CFG47T EDDM-LOWW

Flight info

Callsign CFG47T
Flight time N/A
Altitude 23000
Route KIRDI2Q KIRDI DCT BUWOQ DCT MASUR MASUR3W
Aircraft A320/M-SDE3FGHIRWY/LB1

Departure

Time 2026-05-01 11:52
Airport Munich Airport (EDDM)

Arrival

Time N/A
Airport Vienna International Airport (LOWW)
Time Latitude Longitude Altitude Speed Heading
2026-05-01 11:30 48.35378 11.78325 1466 ft 0 kts 84°
2026-05-01 11:38 48.35377 11.78302 1458 ft 2 kts 84°
2026-05-01 11:39 48.35375 11.78276 1462 ft 2 kts 84°
2026-05-01 11:39 48.35371 11.78251 1458 ft 2 kts 69°
2026-05-01 11:39 48.35365 11.78226 1459 ft 3 kts 50°
2026-05-01 11:39 48.35352 11.78208 1456 ft 3 kts 20°
2026-05-01 11:40 48.35343 11.78204 1460 ft 0 kts 12°
2026-05-01 11:40 48.35331 11.78201 1460 ft 3 kts 358°
2026-05-01 11:40 48.35328 11.78200 1459 ft 0 kts 352°
2026-05-01 11:41 48.35334 11.78199 1460 ft 8 kts 353°
2026-05-01 11:42 48.35378 11.78112 1466 ft 12 kts 269°
2026-05-01 11:42 48.35369 11.78000 1457 ft 10 kts 264°
2026-05-01 11:42 48.35362 11.77901 1466 ft 9 kts 263°
2026-05-01 11:42 48.35339 11.77838 1463 ft 6 kts 211°
2026-05-01 11:43 48.35303 11.77832 1466 ft 4 kts 175°
2026-05-01 11:43 48.35264 11.77838 1461 ft 7 kts 174°
2026-05-01 11:43 48.35224 11.77844 1462 ft 5 kts 174°
2026-05-01 11:44 48.35026 11.77879 1466 ft 19 kts 173°
2026-05-01 11:44 48.34906 11.77899 1458 ft 16 kts 177°
2026-05-01 11:44 48.34831 11.77877 1466 ft 3 kts 194°
2026-05-01 11:44 48.34812 11.77874 1466 ft 5 kts 182°
2026-05-01 11:45 48.34784 11.77877 1460 ft 3 kts 171°
2026-05-01 11:45 48.34764 11.77882 1464 ft 6 kts 172°
2026-05-01 11:45 48.34704 11.77892 1463 ft 8 kts 174°
2026-05-01 11:45 48.34665 11.77859 1462 ft 6 kts 238°
2026-05-01 11:46 48.34654 11.77782 1466 ft 18 kts 262°
2026-05-01 11:46 48.34634 11.77529 1462 ft 25 kts 263°
2026-05-01 11:46 48.34613 11.77285 1466 ft 23 kts 263°
2026-05-01 11:46 48.34597 11.77061 1466 ft 21 kts 263°
2026-05-01 11:47 48.34580 11.76837 1458 ft 24 kts 264°
2026-05-01 11:47 48.34562 11.76598 1466 ft 22 kts 263°
2026-05-01 11:47 48.34545 11.76380 1466 ft 21 kts 263°
2026-05-01 11:47 48.34526 11.76129 1466 ft 25 kts 264°
2026-05-01 11:48 48.34507 11.75883 1458 ft 23 kts 263°
2026-05-01 11:48 48.34489 11.75656 1466 ft 21 kts 263°
2026-05-01 11:48 48.34474 11.75452 1466 ft 19 kts 263°
2026-05-01 11:48 48.34459 11.75278 1466 ft 13 kts 255°
2026-05-01 11:49 48.34399 11.75210 1462 ft 11 kts 179°
2026-05-01 11:49 48.34334 11.75220 1457 ft 9 kts 174°
2026-05-01 11:49 48.34297 11.75227 1465 ft 0 kts 173°
2026-05-01 11:50 48.34294 11.75227 1465 ft 3 kts 173°
2026-05-01 11:50 48.34158 11.75251 1468 ft 23 kts 173°
2026-05-01 11:51 48.34088 11.75347 1469 ft 13 kts 90°
2026-05-01 11:51 48.34097 11.75487 1473 ft 14 kts 86°
2026-05-01 11:51 48.34111 11.75661 1470 ft 23 kts 84°
2026-05-01 11:51 48.34160 11.76320 1471 ft 107 kts 83°
2026-05-01 11:52 48.34277 11.77782 1615 ft 159 kts 86°
2026-05-01 11:52 48.34298 11.79446 2532 ft 165 kts 91°
2026-05-01 11:52 48.34259 11.81276 3426 ft 188 kts 92°
2026-05-01 11:52 48.34193 11.83394 4290 ft 217 kts 92°
2026-05-01 11:53 48.34169 11.85705 5126 ft 216 kts 92°
2026-05-01 11:53 48.34177 11.87753 5823 ft 180 kts 90°
2026-05-01 11:53 48.34217 11.89618 6405 ft 182 kts 87°
2026-05-01 11:53 48.34304 11.91540 6791 ft 184 kts 88°
2026-05-01 11:54 48.34140 11.93464 6820 ft 187 kts 107°
2026-05-01 11:54 48.33535 11.95239 6381 ft 198 kts 127°
2026-05-01 11:54 48.32685 11.96828 6272 ft 188 kts 126°
2026-05-01 11:54 48.31909 11.98402 6320 ft 187 kts 122°
2026-05-01 11:55 48.31264 12.00088 6328 ft 180 kts 114°
2026-05-01 11:55 48.30817 12.01693 6934 ft 164 kts 108°
2026-05-01 11:55 48.30531 12.03340 7100 ft 157 kts 93°
2026-05-01 11:55 48.30641 12.04943 7676 ft 149 kts 75°
2026-05-01 11:56 48.30923 12.06519 7979 ft 161 kts 82°
2026-05-01 11:56 48.31014 12.08210 8115 ft 163 kts 91°
2026-05-01 11:56 48.31001 12.09904 8242 ft 161 kts 91°
2026-05-01 11:56 48.30962 12.11608 8422 ft 164 kts 92°
2026-05-01 11:57 48.30923 12.13331 8621 ft 167 kts 91°
2026-05-01 11:57 48.30880 12.15045 9161 ft 166 kts 91°
2026-05-01 11:57 48.30824 12.16782 9734 ft 167 kts 92°
2026-05-01 11:57 48.30755 12.18537 10291 ft 168 kts 91°
2026-05-01 11:58 48.30683 12.20312 10746 ft 170 kts 91°
2026-05-01 11:58 48.30605 12.22079 11236 ft 173 kts 91°
2026-05-01 11:58 48.30429 12.25702 12835 ft 176 kts 90°
2026-05-01 11:59 48.30331 12.27616 13337 ft 200 kts 91°
2026-05-01 11:59 48.30236 12.29941 13376 ft 246 kts 90°
2026-05-01 11:59 48.30160 12.32756 13386 ft 293 kts 89°
2026-05-01 12:00 48.30065 12.39749 13370 ft 374 kts 89°